XW-4 (CAS-10) (54816 NORAD) Tracking and Keplerian Element Data

This shows tracking and keplerian element data for the satellite.

Feedback or suggestion? Click here.




ElementValue
Catalog54816
NameXW-4 (CAS-10)
Epoch Orbit1178
Epoch Day62.74803017
Epoch Year2023
RAAN71.131
Inclination41.4821
Eccentricity0.0022007
Argument of Perigee122.5124
Mean Anonmoly45.8613
Mean Motion15.93339831
Decay Rate0.00610963
L11 54816U 21035C 23062.74803017 .00610963 15647-3 16195-2 0 9993
L22 54816 41.4821 71.1310 0022007 122.5124 45.8613 15.93339831 11786



Live tracking and technical data element details for XW-4 (CAS-10) (NORAD 54816). XW-4 (CAS-10) can be tracked NOW for your location showing map with azimuth and elevation plus other details from your city location.







IsCatalogInMostPopularTable: catalog: 54816, numindb: 77
Update: records affected: 1



GetName: 54816 XW-4 (CAS-10)

Hit Count: updated at: Thu, 23 Jan 2025 16:21:26 GMT